Location: SE Lincoln, NE
(40.7805°N, 96.6275°W)
Time: 03:10:36
(UTC-05:00)

MetOp-B - Pass Details

Date: 15 May 2021
Orbit: 819 x 821 km, 98.7° (Epoch: 23 June)

Event Time Altitude Azimuth Distance (km) Brightness Sun altitude
Exits shadow 22:17:53 23° 160° (SSE) 1,687 5.2 -16.3°
Maximum altitude 22:21:20 82° 75° (ENE) 835 4.1 -16.8°
Drops below altitude 10° 22:26:42 10° 348° (NNW) 2,425 7.5 -17.5°
Sets 22:29:04 0° 348° (NNW) 3,361 8.3 -17.8°
